[[{"header":{"parameterUnit":"m.s-1","parameterCategory":1,"la1":30.2991,"la2":30.254,"lo1":-89.0895,"lo2":-89.0444,"dy":0.0017,"dx":0.0017,"nx":28,"ny":28,"refTime":"2025-01-14T09:00:00:Z","depth":0,"parameterNumber":2,"parameterNumberName":"U-component_of_WINDS"},"data":[0,0,0,0,0,0,0,0,0,0,0,0,0,0,0,0,0,0,0,0,0,0,0,0,0,0,0,0,0,0,0,0,0,0,0,0,0,0,0,0,0,0,0,0,0,0,0,0,0,0,0,0,0,0,0,0,0,0,-0.8878,-0.8879,0,-0.8943,-0.8944,-0.8945,-0.8917,-0.8916,-0.8914,-0.8912,-0.8981,-0.8984,-0.8987,0,0,0,0,0,0,0,0,0,0,0,0,0,-0.8731,-0.8734,-0.8878,-0.8879,-0.888,-0.8943,-0.8944,-0.8945,-0.8917,-0.8915,-0.8914,-0.8912,-0.898,-0.8984,-0.8988,0,0,0,0,0,0,0,0,0,0,0,0,0,-0.8795,-0.8735,-0.8878,-0.8874,-0.8874,-0.8943,-0.8944,-0.8945,-0.8918,-0.8915,-0.8913,-0.8911,-0.8979,-0.8983,-0.8988,-0.9066,0,0,-0.9003,-0.9005,0,0,0,0,0,0,0,0,-0.8792,-0.8801,-0.8874,-0.8874,-0.8875,-0.892,-0.8917,-0.8986,-0.8918,-0.8901,-0.8912,-0.891,-0.8963,-0.8969,-0.8986,-0.9069,-0.9072,-0.9004,-0.9007,-0.9009,-0.901,0,0,0,0,0,0,0,-0.8787,-0.8798,-0.8904,-0.8875,-0.8875,-0.8869,-0.8875,-0.893,-0.8944,-0.8903,-0.8901,-0.8909,-0.8962,-0.8981,-0.8988,-0.9073,-0.9004,-0.9008,-0.9011,-0.9013,-0.9223,-0.9226,0,0,0,0,0,0,-0.8783,-0.8794,-0.8902,-0.8906,-0.8826,-0.8873,-0.8881,-0.8908,-0.8944,-0.8947,-0.8911,-0.8907,-0.8974,-0.8982,-0.899,-0.9084,-0.9009,-0.9013,-0.9016,-0.9221,-0.9224,-0.9227,0,0,0,0,0,0,-0.878,-0.8793,-0.8899,-0.885,-0.8863,-0.8878,-0.8909,-0.891,-0.8929,-0.895,-0.8952,-0.8928,-0.8973,-0.8983,-0.9047,-0.9086,-0.9016,-0.902,-0.9218,-0.9222,-0.9226,-0.9273,0,0,0,0,0,0,-0.8775,-0.8792,-0.8821,-0.8851,-0.8866,-0.8956,-0.8911,-0.8913,-0.8938,-0.8934,-0.8966,-0.897,-0.8972,-0.904,-0.9052,-0.9092,-0.9024,-0.9214,-0.922,-0.9224,-0.9268,-0.9278,-0.9287,0,0,0,0,0,-0.877,-0.8833,-0.8823,-0.8836,-0.8903,-0.8958,-0.8967,-0.8967,-0.8941,-0.8971,-0.8984,-0.8968,-0.9079,-0.9047,-0.906,-0.9102,-0.9212,-0.9218,-0.9224,-0.9264,-0.9276,-0.9286,0,0,0,0,0,0,-0.8809,-0.8836,-0.8826,-0.89,-0.8927,-0.8953,-0.8992,-0.898,-0.9016,-0.9011,-0.901,-0.9018,-0.9085,-0.9099,-0.9063,-0.9179,-0.9142,-0.9151,-0.9168,-0.9179,-0.9188,-0.9185,-0.9028,0,0,0,0,0,-0.8825,-0.8867,-0.8889,-0.8952,-0.8966,-0.8976,-0.9,-0.8998,-0.9027,-0.9038,-0.9056,-0.9084,-0.9125,-0.9153,-0.9192,-0.9269,-0.9276,-0.9304,-0.9313,-0.9321,-0.9329,-0.9372,-0.9385,-0.9246,-0.9246,-0.9246,0,0,-0.8861,-0.8881,-0.8908,-0.896,-0.8981,-0.9025,-0.8986,-0.9035,-0.9067,-0.9046,-0.9108,-0.9121,-0.9153,-0.9224,-0.9257,-0.9239,-0.9368,-0.9328,-0.9334,-0.9339,-0.9379,-0.9392,-0.9404,-0.925,-0.925,-0.9249,0,0,-0.8949,-0.8968,-0.9023,-0.9044,-0.9075,-0.9081,-0.9094,-0.9122,-0.9131,-0.9192,-0.9177,-0.9215,-0.9286,-0.9309,-0.9331,-0.9425,-0.9412,-0.9437,-0.9487,-0.9528,-0.9539,-0.9549,-0.9584,-0.9596,-0.9445,-0.9445,-0.9445,0,-0.899,-0.9055,-0.9052,-0.9102,-0.9125,-0.9106,-0.9162,-0.9182,-0.9225,-0.9242,-0.922,-0.9308,-0.9328,-0.9405,-0.9428,-0.9445,-0.946,-0.9435,-0.9538,-0.9547,-0.9557,-0.959,-0.9603,-0.9448,-0.9448,-0.9448,-0.9447,0,-0.9105,-0.915,-0.919,-0.9231,-0.9259,-0.9311,-0.9316,-0.9345,-0.9339,-0.9348,-0.9411,-0.9433,-0.9477,-0.9494,-0.949,-0.957,-0.9558,-0.9537,-0.95,-0.9573,-0.9604,-0.9617,-0.9453,-0.9452,-0.9451,-0.945,0,0,-0.9222,-0.9259,-0.9274,-0.9292,-0.9324,-0.936,-0.941,-0.9452,-0.9477,-0.9506,-0.9549,-0.9608,-0.9589,-0.9613,-0.961,-0.9646,-0.9721,-0.9621,-0.9622,-0.964,-0.9812,-0.9829,-0.9844,-0.9711,-0.9714,-0.9716,-0.981,0,-0.9313,-0.9403,-0.9401,-0.9484,-0.9526,-0.9507,-0.9551,-0.9576,-0.9584,-0.9621,-0.9631,-0.9673,-0.9644,-0.9658,-0.9692,-0.9705,-0.9756,-0.9697,-0.9753,-0.9755,-0.9748,-0.986,-0.9879,-0.9967,-0.9822,-0.9824,-0.9826,0,-0.9433,-0.9466,-0.9553,-0.9578,-0.9596,-0.9636,-0.9674,-0.9709,-0.9736,-0.974,-0.9765,-0.9757,-0.9809,-0.9768,-0.9839,-0.98,-0.9822,-0.9831,-0.9834,-0.9842,-0.9797,-0.9873,-0.9995,-1.0009,-0.9845,-0.9843,-0.9842,0,-0.9512,-0.9577,-0.9638,-0.9654,-0.9685,-0.9713,-0.9728,-0.9752,-0.9777,-0.9809,-0.9826,-0.9864,-0.9885,-0.9915,-0.9917,-0.9887,-0.9989,-0.9949,-0.9995,-0.9995,-1.002,-1.0019,-1.015,-1.003,-1.003,-1.003,-1.003,0,-0.9616,-0.9671,-0.9674,-0.9712,-0.9772,-0.9768,-0.9828,-0.984,-0.9861,-0.9901,-0.9886,-0.9924,-0.9923,-0.9961,-0.9962,-1.0022,-1.0031,-1.0036,-1.0037,-1.0039,-1.0039,-1.0056,-1.0051,-1.0033,-1.0033,-1.0032,-1.0031,0,-0.9716,-0.972,-0.9785,-0.9808,-0.9815,-0.9859,-0.9878,-0.9914,-0.992,-0.9971,-0.9982,-0.9992,-1.0036,-1.004,-1.0091,-1.0092,-1.0165,-1.0157,-1.0156,-1.0156,-1.0202,-1.0199,-1.0351,-1.0371,-1.0236,-1.0237,-1.0238,0,-0.9784,-0.9825,-0.9852,-0.9877,-0.9893,-0.9933,-0.9958,-0.9955,-0.9982,-1.0015,-1.0047,-1.0089,-1.0123,-1.0194,-1.0207,-1.0245,-1.024,-1.029,-1.0246,-1.0247,-1.0243,-1.0242,-1.0246,-1.03,-1.0302,-1.0303,-1.0304,0,-0.9904,-0.9903,-0.994,-0.9977,-1.0006,-1.0035,-1.0063,-1.0084,-1.0084,-1.0115,-1.0159,-1.0186,-1.0237,-1.028,-1.0317,-1.0332,-1.0319,-1.0317,-1.033,-1.0335,-1.0333,-1.0336,-1.0182,-1.0314,-1.0313,-1.0313,-1.0312,-1.0312,-0.9991,-1.0027,-1.0051,-1.0092,-1.0112,-1.0137,-1.0172,-1.0182,-1.0218,-1.026,-1.0256,-1.0305,-1.033,-1.0379,-1.0396,-1.0435,-1.0418,-1.0437,-1.0442,-1.0447,-1.0453,-1.0324,-1.0442,-1.0441,-1.0441,-1.0441,-1.0441,0,-1.0112,-1.0126,-1.0163,-1.0202,-1.0234,-1.0216,-1.0244,-1.0273,-1.0316,-1.034,-1.0374,-1.0424,-1.0465,-1.0479,-1.0519,-1.0547,-1.0542,-1.0558,-1.0557,-1.0561,-1.0465,-1.0451,-1.0561,-1.0561,-1.0561,-1.0561,-1.0561,-1.0561,-1.0179,-1.0239,-1.0241,-1.0311,-1.0325,-1.0373,-1.0391,-1.0414,-1.0433,-1.0491,-1.0524,-1.0532,-1.0552,-1.0593,-1.0629,-1.0632,-1.0649,-1.0668,-1.0668,-1.0579,-1.0567,-1.0556,-1.0543,-1.067,-1.0671,-1.0761,-1.0762,-1.0762]},{"header":{"parameterUnit":"m.s-1","parameterCategory":1,"la1":30.2991,"la2":30.254,"lo1":-89.0895,"lo2":-89.0444,"dy":0.0017,"dx":0.0017,"nx":28,"ny":28,"refTime":"2025-01-14T09:00:00:Z","depth":0,"parameterNumber":3,"parameterNumberName":"V-component_of_WINDS"},"data":[0,0,0,0,0,0,0,0,0,0,0,0,0,0,0,0,0,0,0,0,0,0,0,0,0,0,0,0,0,0,0,0,0,0,0,0,0,0,0,0,0,0,0,0,0,0,0,0,0,0,0,0,0,0,0,0,0,0,-6.2686,-6.2687,0,-6.281,-6.2811,-6.2813,-6.2727,-6.2723,-6.2719,-6.2716,-6.2839,-6.2845,-6.2852,0,0,0,0,0,0,0,0,0,0,0,0,0,-6.237,-6.2376,-6.2686,-6.2687,-6.2689,-6.281,-6.2811,-6.2813,-6.2728,-6.2723,-6.2718,-6.2714,-6.2836,-6.2845,-6.2853,0,0,0,0,0,0,0,0,0,0,0,0,0,-6.2502,-6.2378,-6.2685,-6.2661,-6.266,-6.2809,-6.2812,-6.2814,-6.2729,-6.2723,-6.2717,-6.2712,-6.2834,-6.2844,-6.2854,-6.3033,0,0,-6.2885,-6.289,0,0,0,0,0,0,0,0,-6.2494,-6.2513,-6.2663,-6.2663,-6.2662,-6.2747,-6.2745,-6.2887,-6.273,-6.2702,-6.2716,-6.2709,-6.2813,-6.2824,-6.286,-6.3039,-6.3044,-6.2886,-6.2893,-6.2897,-6.29,0,0,0,0,0,0,0,-6.2485,-6.2507,-6.2735,-6.2665,-6.2665,-6.2642,-6.2654,-6.2772,-6.2788,-6.2704,-6.2698,-6.2715,-6.2811,-6.2851,-6.2862,-6.3046,-6.2886,-6.2895,-6.2902,-6.2906,-6.3377,-6.3384,0,0,0,0,0,0,-6.2479,-6.25,-6.2731,-6.2738,-6.2562,-6.2652,-6.2666,-6.2726,-6.2787,-6.2791,-6.2719,-6.271,-6.2836,-6.2851,-6.2866,-6.3081,-6.2897,-6.2907,-6.2913,-6.3371,-6.3379,-6.3386,0,0,0,0,0,0,-6.2472,-6.25,-6.2726,-6.2618,-6.2645,-6.2664,-6.2731,-6.2731,-6.277,-6.2798,-6.28,-6.2757,-6.2832,-6.2852,-6.2993,-6.3084,-6.2911,-6.2921,-6.3364,-6.3374,-6.3382,-6.3511,0,0,0,0,0,0,-6.2464,-6.2498,-6.2568,-6.262,-6.2651,-6.2852,-6.2737,-6.2738,-6.2789,-6.2778,-6.2834,-6.2838,-6.2829,-6.2978,-6.3003,-6.3095,-6.2929,-6.3356,-6.3368,-6.3379,-6.3498,-6.3523,-6.3545,0,0,0,0,0,-6.2453,-6.2598,-6.2572,-6.26,-6.2739,-6.2857,-6.2875,-6.2863,-6.2797,-6.2866,-6.2884,-6.2836,-6.3069,-6.2993,-6.302,-6.3117,-6.335,-6.3365,-6.3378,-6.3488,-6.3518,-6.3544,0,0,0,0,0,0,-6.2555,-6.2605,-6.2576,-6.2743,-6.2797,-6.2843,-6.293,-6.2896,-6.2968,-6.2955,-6.2935,-6.2949,-6.3096,-6.312,-6.3034,-6.3293,-6.3199,-6.3219,-6.3273,-6.3302,-6.3325,-6.3316,-6.2937,0,0,0,0,0,-6.2597,-6.2691,-6.2728,-6.2872,-6.2901,-6.2911,-6.2962,-6.2948,-6.3002,-6.3024,-6.3052,-6.3105,-6.319,-6.3247,-6.3327,-6.3501,-6.3511,-6.358,-6.3603,-6.3622,-6.3641,-6.3734,-6.3765,-6.3433,-6.3433,-6.3432,0,0,-6.2685,-6.2724,-6.2784,-6.2894,-6.2934,-6.303,-6.2931,-6.3036,-6.3107,-6.304,-6.3175,-6.3197,-6.3255,-6.3413,-6.3484,-6.3438,-6.3735,-6.3641,-6.3655,-6.3664,-6.3752,-6.3783,-6.3811,-6.3442,-6.3441,-6.3439,0,0,-6.2895,-6.2934,-6.3058,-6.31,-6.3162,-6.3168,-6.3198,-6.3249,-6.3262,-6.3397,-6.3348,-6.3431,-6.3578,-6.3622,-6.3663,-6.3888,-6.3847,-6.3914,-6.4036,-6.4127,-6.4153,-6.4176,-6.4257,-6.4286,-6.3932,-6.3933,-6.3933,0,-6.2996,-6.3141,-6.3125,-6.3236,-6.3285,-6.3229,-6.3354,-6.3395,-6.348,-6.3515,-6.3461,-6.3645,-6.368,-6.3847,-6.3903,-6.3938,-6.397,-6.3909,-6.4151,-6.4174,-6.4195,-6.4272,-6.4302,-6.394,-6.394,-6.3939,-6.3938,0,-6.3262,-6.3363,-6.3455,-6.354,-6.3599,-6.3716,-6.3718,-6.3779,-6.376,-6.3771,-6.3909,-6.3949,-6.4036,-6.4074,-6.4056,-6.4239,-6.4208,-6.4154,-6.4059,-6.4235,-6.4307,-6.4336,-6.3952,-6.3949,-6.3947,-6.3945,0,0,-6.3541,-6.3616,-6.365,-6.3688,-6.3752,-6.3829,-6.3942,-6.4028,-6.4082,-6.4141,-6.4236,-6.4361,-6.4311,-6.4358,-6.4343,-6.4423,-6.46,-6.4359,-6.436,-6.4403,-6.4804,-6.4846,-6.488,-6.4572,-6.4577,-6.4582,-6.4799,0,-6.3755,-6.3955,-6.3944,-6.4131,-6.4224,-6.4172,-6.427,-6.4319,-6.4332,-6.4411,-6.4424,-6.4514,-6.4441,-6.4469,-6.4545,-6.4562,-6.468,-6.4546,-6.4659,-6.4663,-6.4648,-6.4917,-6.4962,-6.5165,-6.4827,-6.4832,-6.4835,0,-6.4031,-6.4102,-6.4299,-6.4349,-6.4387,-6.4477,-6.4555,-6.4631,-6.4685,-6.4688,-6.4741,-6.4713,-6.4826,-6.4728,-6.4883,-6.4792,-6.4837,-6.4852,-6.486,-6.4871,-6.4761,-6.4936,-6.523,-6.5261,-6.4879,-6.4876,-6.4872,0,-6.4216,-6.436,-6.4497,-6.453,-6.4592,-6.4656,-6.4684,-6.4732,-6.4785,-6.4852,-6.4886,-6.4965,-6.5009,-6.507,-6.5064,-6.4992,-6.5221,-6.5122,-6.5227,-6.5227,-6.5279,-6.5276,-6.5585,-6.5306,-6.5306,-6.5305,-6.5304,0,-6.4457,-6.4579,-6.4581,-6.4665,-6.48,-6.4786,-6.4919,-6.494,-6.4984,-6.507,-6.5028,-6.5109,-6.5096,-6.5177,-6.5172,-6.5301,-6.5321,-6.5326,-6.5324,-6.5331,-6.533,-6.5361,-6.5347,-6.5313,-6.5311,-6.531,-6.5308,0,-6.4687,-6.4693,-6.4838,-6.4884,-6.4899,-6.4997,-6.5035,-6.5114,-6.5123,-6.5232,-6.5257,-6.5271,-6.5364,-6.5363,-6.5469,-6.5465,-6.5624,-6.5605,-6.5607,-6.5603,-6.5709,-6.5699,-6.6049,-6.6094,-6.5785,-6.5788,-6.5791,0,-6.4841,-6.4934,-6.4991,-6.5046,-6.5079,-6.5169,-6.5222,-6.5211,-6.5268,-6.5336,-6.5407,-6.5496,-6.5567,-6.5718,-6.5736,-6.5816,-6.5799,-6.5916,-6.5811,-6.5815,-6.5802,-6.5797,-6.5806,-6.5937,-6.5941,-6.5943,-6.5946,0,-6.5113,-6.5112,-6.5192,-6.5273,-6.5339,-6.5402,-6.5459,-6.5507,-6.5501,-6.5567,-6.5663,-6.5718,-6.5826,-6.5915,-6.5993,-6.6019,-6.5982,-6.5978,-6.6007,-6.6016,-6.6014,-6.6017,-6.5664,-6.5971,-6.5968,-6.5966,-6.5965,-6.5964,-6.5311,-6.5391,-6.5444,-6.5534,-6.5577,-6.5632,-6.5709,-6.5727,-6.5807,-6.5896,-6.5883,-6.599,-6.6039,-6.614,-6.6173,-6.6255,-6.6214,-6.6255,-6.6266,-6.6277,-6.6289,-6.6,-6.6269,-6.6268,-6.6268,-6.6267,-6.6266,0,-6.5582,-6.5613,-6.5697,-6.578,-6.585,-6.581,-6.5871,-6.5933,-6.6028,-6.6078,-6.6149,-6.6258,-6.6344,-6.6369,-6.6452,-6.6513,-6.6497,-6.6535,-6.6531,-6.6538,-6.6321,-6.6288,-6.6546,-6.6546,-6.6546,-6.6545,-6.6545,-6.6545,-6.5732,-6.5866,-6.5871,-6.6025,-6.6055,-6.616,-6.6199,-6.6249,-6.6289,-6.6414,-6.6486,-6.6502,-6.6542,-6.6627,-6.6703,-6.6708,-6.674,-6.6785,-6.6783,-6.6581,-6.6553,-6.6526,-6.6495,-6.6792,-6.6793,-6.6993,-6.6995,-6.6997]}]]